Location: Madrid
(40.4000°N, 3.6830°W)
Time: 02:34:02
(UTC+01:00)

ISS - Visible Passes

Search period start: 19 December 2018 00:00
Search period end: 29 December 2018 00:00
Orbit: 401 x 408 km, 51.6° (Epoch: 19 December)

Date Brightness Start Highest point End Pass type
(mag) Time Alt. Az. Time Alt. Az. Time Alt. Az.
21 Dec -0.5 07:53:13 10° S 07:55:22 16° SE 07:57:31 10° E visible
23 Dec -2.3 07:44:06 10° SSW 07:47:11 39° SE 07:50:18 10° ENE visible
24 Dec -1.1 06:52:35 10° S 06:55:06 21° SE 06:57:38 10° E visible
25 Dec -0.5 06:02:17 10° SE 06:03:05 11° SE 06:03:54 10° ESE visible
25 Dec -3.9 07:35:49 10° SW 07:39:07 80° NW 07:42:24 10° NE visible
26 Dec -3.1 06:45:58 37° S 06:46:54 51° SE 06:50:06 10° ENE visible
27 Dec -0.7 05:56:44 15° E 05:56:44 15° E 05:57:32 10° ENE visible
27 Dec -3.1 07:29:27 21° W 07:31:07 36° NNW 07:34:12 10° NE visible
28 Dec -2.7 06:39:53 36° NNE 06:39:53 36° NNE 06:42:02 10° NE visible
